Canadian, TX

2:53 PM CDT on October 22, 2019 (GMT -0500)
Hemphill County

Weather History for KHHF - June, 2019

Change the Weather History Date:

Tuesday, June 11, 2019

  Actual Average (KPPA) Record (KPPA)
Temperature  
Mean Temperature 72 °F -  
Max Temperature 85 °F 83 °F 102 °F (2008)
Min Temperature 59 °F 58 °F 43 °F (1979)
Cooling Degree Days 7    
Growing Degree Days 22 (Base 50)    
Moisture  
Dew Point 54 °F    
Average Humidity 55    
Maximum Humidity 73    
Minimum Humidity 42    
Precipitation  
Precipitation 0.00 in - - ()
Sea Level Pressure  
Sea Level Pressure 30.09 in    
Wind  
Wind Speed 10 mph (South)    
Max Wind Speed 23 mph    
Max Gust Speed 33 mph    
Visibility 10 miles    
Events      
Averages and records for this station are not official NWS values.
T = Trace of Precipitation, MM = Missing Value Source: NWS Daily Summary

Daily Weather History Graph

Daily Weather History Graph

Search for Another Location

Airport or City:

Astronomy

Jun. 11, 2019 Rise Set
Actual Time 6:24 AM CDT 8:58 PM CDT
Civil Twilight 5:54 AM CDT 9:28 PM CDT
Nautical Twilight 5:17 AM CDT 10:05 PM CDT
Astronomical Twilight 4:35 AM CDT 10:46 PM CDT
Moon 3:12 PM CDT (6/11) 2:55 AM CDT (6/11)
Length of Visible Light 15h 33m
Length of Day
14h 33m
Waxing Gibbous, 66% of the Moon is Illuminated
Jun 11
Waxing Gibbous
Jun 17
Full
Jun 25
Last Quarter
Jul 2
New
Jul 9
First Quarter

Hourly Weather History & Observations

Time (CDT) Temp. Heat Index Dew Point Humidity Pressure Visibility Wind Dir Wind Speed Gust Speed Precip Events Conditions
12:15 AM 60.6 °F - 48.9 °F 65% 30.27 in 10.0 mi South 6.9 mph - N/A   Clear
12:35 AM 61.3 °F - 47.8 °F 61% 30.27 in 10.0 mi SSE 6.9 mph - N/A   Clear
12:55 AM 61.9 °F - 47.3 °F 59% 30.26 in 10.0 mi SSE 9.2 mph - N/A   Clear
1:15 AM 62.1 °F - 46.8 °F 57% 30.26 in 10.0 mi SSE 6.9 mph - N/A   Clear
1:35 AM 61.5 °F - 47.1 °F 59% 30.26 in 10.0 mi South 5.8 mph - N/A   Clear
1:55 AM 61.2 °F - 47.5 °F 61% 30.26 in 10.0 mi SSE 3.5 mph - N/A   Clear
2:15 AM 60.6 °F - 47.5 °F 62% 30.25 in 10.0 mi SSE 3.5 mph - N/A   Clear
2:35 AM 59.9 °F - 47.8 °F 64% 30.24 in 10.0 mi SE 4.6 mph - N/A   Clear
2:55 AM 59.9 °F - 48.0 °F 65% 30.23 in 10.0 mi ESE 4.6 mph - N/A   Clear
3:15 AM 59.0 °F - 48.0 °F 67% 30.22 in 10.0 mi SE 6.9 mph - N/A   Clear
3:35 AM 59.4 °F - 48.4 °F 67% 30.21 in 10.0 mi SSE 3.5 mph - N/A   Clear
3:55 AM 60.1 °F - 47.7 °F 64% 30.21 in 10.0 mi SSE 5.8 mph - N/A   Clear
4:15 AM 60.1 °F - 47.3 °F 63% 30.20 in 10.0 mi South 6.9 mph - N/A   Clear
4:35 AM 59.4 °F - 47.1 °F 64% 30.19 in 10.0 mi Calm Calm - N/A   Clear
4:55 AM 60.8 °F - 46.8 °F 60% 30.19 in 10.0 mi SSW 5.8 mph - N/A   Clear
5:15 AM 61.7 °F - 46.4 °F 57% 30.18 in 10.0 mi South 12.7 mph - N/A   Clear
5:35 AM 61.3 °F - 46.4 °F 58% 30.18 in 10.0 mi South 10.4 mph 19.6 mph N/A   Clear
5:55 AM 61.0 °F - 46.4 °F 59% 30.18 in 10.0 mi SSW 12.7 mph - N/A   Clear
6:15 AM 60.8 °F - 46.0 °F 58% 30.18 in 10.0 mi SSW 8.1 mph - N/A   Clear
6:35 AM 60.6 °F - 46.4 °F 59% 30.18 in 10.0 mi SSW 6.9 mph - N/A   Clear
6:55 AM 60.3 °F - 47.1 °F 62% 30.18 in 10.0 mi South 9.2 mph - N/A   Clear
7:15 AM 61.2 °F - 47.5 °F 61% 30.18 in 10.0 mi South 9.2 mph - N/A   Clear
7:55 AM 62.2 °F - 48.6 °F 61% 30.18 in 10.0 mi SSW 10.4 mph 17.3 mph N/A   Clear
8:15 AM 64.9 °F - 49.5 °F 57% 30.17 in 10.0 mi South 15.0 mph 23.0 mph N/A   Clear
8:35 AM 64.8 °F - 49.8 °F 58% 30.16 in 10.0 mi South 16.1 mph 25.3 mph N/A   Clear
8:55 AM 65.8 °F - 50.5 °F 58% 30.16 in 10.0 mi South 18.4 mph 26.5 mph N/A   Clear
9:15 AM 66.7 °F - 50.7 °F 56% 30.16 in 10.0 mi South 20.7 mph 27.6 mph N/A   Clear
9:35 AM 67.5 °F - 51.1 °F 56% 30.15 in 10.0 mi South 20.7 mph 27.6 mph N/A   Clear
9:55 AM 68.9 °F - 51.3 °F 53% 30.15 in 10.0 mi South 23.0 mph 29.9 mph N/A   Clear
10:15 AM 70.3 °F - 50.9 °F 50% 30.15 in 10.0 mi SSW 17.3 mph 27.6 mph N/A   Clear
10:35 AM 71.8 °F - 51.4 °F 49% 30.14 in 10.0 mi SSW 21.9 mph 26.5 mph N/A   Clear
10:55 AM 72.5 °F - 51.3 °F 47% 30.13 in 10.0 mi South 19.6 mph 27.6 mph N/A   Clear
11:15 AM 73.0 °F - 51.8 °F 47% 30.12 in 10.0 mi South 23.0 mph 29.9 mph N/A   Clear
11:35 AM 73.8 °F - 51.8 °F 46% 30.11 in 10.0 mi South 21.9 mph 33.4 mph N/A   Clear
11:55 AM 74.5 °F - 52.7 °F 46% 30.10 in 10.0 mi SSW 20.7 mph 29.9 mph N/A   Clear
12:15 PM 75.9 °F - 52.9 °F 45% 30.09 in 10.0 mi SSW 19.6 mph 27.6 mph N/A   Clear
12:35 PM 75.9 °F - 53.2 °F 45% 30.09 in 10.0 mi SSW 20.7 mph 26.5 mph N/A   Clear
12:55 PM 77.0 °F - 54.7 °F 46% 30.09 in 10.0 mi SSW 20.7 mph 26.5 mph N/A   Clear
1:15 PM 77.5 °F - 54.5 °F 45% 30.08 in 10.0 mi South 16.1 mph 27.6 mph N/A   Clear
1:35 PM 79.2 °F - 56.5 °F 46% 30.07 in 10.0 mi SSW 17.3 mph 24.2 mph N/A   Clear
1:55 PM 79.3 °F - 56.3 °F 45% 30.06 in 10.0 mi South 18.4 mph 21.9 mph N/A   Clear
2:15 PM 80.2 °F 80.4 °F 56.7 °F 44% 30.04 in 10.0 mi SSW 17.3 mph 25.3 mph N/A   Clear
2:35 PM 81.5 °F 81.5 °F 57.4 °F 44% 30.03 in 10.0 mi South 17.3 mph 23.0 mph N/A   Clear
2:55 PM 81.5 °F 81.4 °F 56.8 °F 43% 30.02 in 10.0 mi SSW 19.6 mph 25.3 mph N/A   Clear
3:15 PM 82.8 °F 82.5 °F 58.5 °F 43% 30.01 in 10.0 mi SSW 15.0 mph 21.9 mph N/A   Clear
3:35 PM 82.9 °F 82.7 °F 58.3 °F 43% 30.00 in 10.0 mi SSW 18.4 mph 26.5 mph N/A   Clear
3:55 PM 83.7 °F 83.3 °F 58.6 °F 42% 29.99 in 10.0 mi South 12.7 mph 23.0 mph N/A   Clear
4:15 PM 83.8 °F 83.6 °F 58.8 °F 43% 29.98 in 10.0 mi South 16.1 mph 24.2 mph N/A   Clear
4:35 PM 84.7 °F 84.6 °F 59.7 °F 43% 29.97 in 10.0 mi South 17.3 mph 23.0 mph N/A   Clear
4:55 PM 85.1 °F 84.8 °F 59.4 °F 42% 29.96 in 10.0 mi SSW 15.0 mph 23.0 mph N/A   Clear
5:15 PM 85.3 °F 85.0 °F 59.9 °F 42% 29.95 in 10.0 mi South 17.3 mph 23.0 mph N/A   Clear
5:35 PM 85.1 °F 85.2 °F 60.8 °F 44% 29.95 in 10.0 mi SSW 11.5 mph 20.7 mph N/A   Clear
5:55 PM 85.3 °F 85.4 °F 61.3 °F 44% 29.94 in 10.0 mi South 11.5 mph 19.6 mph N/A   Clear
6:15 PM 84.6 °F 84.8 °F 60.8 °F 45% 29.93 in 10.0 mi South 15.0 mph - N/A   Clear
6:35 PM 84.2 °F 84.4 °F 60.8 °F 45% 29.92 in 10.0 mi South 13.8 mph 19.6 mph N/A   Clear
6:55 PM 83.5 °F 83.7 °F 61.0 °F 46% 29.93 in 10.0 mi South 11.5 mph - N/A   Clear
7:15 PM 82.8 °F 83.1 °F 60.8 °F 47% 29.94 in 10.0 mi South 10.4 mph 16.1 mph N/A   Clear
7:35 PM 82.2 °F 82.7 °F 60.6 °F 48% 29.93 in 10.0 mi South 12.7 mph 19.6 mph N/A   Clear
7:55 PM 81.0 °F 81.7 °F 60.6 °F 50% 29.94 in 10.0 mi South 11.5 mph - N/A   Clear
8:15 PM 79.7 °F - 61.0 °F 53% 29.94 in 10.0 mi South 6.9 mph - N/A   Clear
8:35 PM 77.7 °F - 61.0 °F 56% 29.95 in 10.0 mi South 4.6 mph - N/A   Clear
8:55 PM 76.3 °F - 60.6 °F 58% 29.95 in 10.0 mi Calm Calm - N/A   Clear
9:15 PM 75.2 °F - 61.5 °F 62% 29.95 in 10.0 mi East 3.5 mph - N/A   Scattered Clouds
9:35 PM 75.4 °F - 60.8 °F 60% 29.95 in 10.0 mi Calm Calm - N/A   Scattered Clouds
9:55 PM 73.9 °F - 60.6 °F 63% 29.96 in 10.0 mi SE 5.8 mph - N/A   Clear
10:15 PM 72.0 °F - 60.8 °F 68% 29.97 in 10.0 mi SSW 3.5 mph - N/A   Scattered Clouds
10:35 PM 71.4 °F - 60.6 °F 69% 29.98 in 10.0 mi Calm Calm - N/A   Clear
10:55 PM 70.5 °F - 60.8 °F 71% 30.00 in 10.0 mi NW 6.9 mph - N/A   Clear
11:15 PM 70.7 °F - 60.8 °F 71% 30.02 in 10.0 mi West 4.6 mph - N/A   Clear
11:35 PM 71.2 °F - 60.8 °F 69% 30.04 in 10.0 mi Calm Calm - N/A   Clear
11:55 PM 70.0 °F - 61.0 °F 73% 30.05 in 10.0 mi NNW 3.5 mph - N/A   Clear